Location: Zlin
(49.2330°N, 17.6670°E)
Time: 08:59:27
(UTC+02:00)

ISS - Visible Passes

Search period start: 20 October 2021 00:00
Search period end: 30 October 2021 00:00
Orbit: 417 x 423 km, 51.6° (Epoch: 20 October)

Date Brightness Start Highest point End Pass type
(mag) Time Alt. Az. Time Alt. Az. Time Alt. Az.
21 Oct -0.6 06:15:23 10° SSE 06:16:49 12° SE 06:18:15 10° ESE visible
23 Oct -1.8 06:16:03 10° SSW 06:18:58 27° SE 06:21:53 10° E visible
24 Oct -1.3 05:29:55 12° S 05:32:01 19° SE 05:34:28 10° E visible
25 Oct -0.8 04:45:16 13° SE 04:45:16 13° SE 04:46:40 10° ESE visible
25 Oct -3.2 06:18:17 11° SW 06:21:24 58° SSE 06:24:44 10° ENE visible
26 Oct -2.7 05:33:31 33° S 05:34:24 40° SSE 05:37:36 10° ENE visible
27 Oct -1.4 04:48:39 22° ESE 04:48:39 22° ESE 04:50:25 10° E visible
27 Oct -3.8 06:21:40 18° WSW 06:24:06 79° NNW 06:27:29 10° ENE visible
28 Oct -3.9 05:36:44 69° SW 05:37:04 81° SSE 05:40:28 10° ENE visible
29 Oct -1.5 04:51:47 26° E 04:51:47 26° E 04:53:27 10° ENE visible
29 Oct -3.5 06:24:47 19° W 06:27:01 57° N 06:30:21 10° ENE visible
